星链-35513(STARLINK-35513)

导读

STARLINK-35513是美国于2025年10月8日发射的星链系列卫星,隶属于SpaceX公司的星链互联网星座项目。该项目旨在构建全球卫星互联网络,为全球用户提供覆盖广泛、低延迟的高速互联网服务,此卫星进一步扩充了星链星座的在轨规模,提升了星座服务能力。

基本信息
目录编号:
65930
目录名称:
STARLINK-35513
国际标识:
2025-225W
轨道中心:
EARTH
卫星名称:
星链-35513
卫星全名:
星链-35513(STARLINK-35513)
卫星状态:
在轨 (已飞行331 天)
发射日期:
2025-10-08 UTC
国别 :
美国 (US)
星等 :
--
轨道信息
数据来源 国际轨道数据 AOE轨道数据
星历时间 2026-09-03T18:51:27+0800
18小时前
查看轨道信息
2026-09-03T03:00:00+0800
1天前
查看轨道信息
半长轴 6840.836km 6840.749km
偏心率 0.0001361 0.0001668
轨道倾角 53.159° 53.161°
近地点辐角 79.166° 90.400°
升交点赤经 57.205° 60.295°
平近点角 280.950° 218.009°
近地点 461.767km 461.47km
远地点 463.631km 463.754km
周期 93.848分钟 93.846分钟
每日圈数 15.344017 15.34431
详细信息
固有亮度:
5
最大亮度:
2.5
卫星平台:
Starlink V1.0
覆盖范围:
全球
运营商:
太空探索技术公司
运营商所在国:
美国
制造商(研发单位):
太空探索技术公司
制造商所在国:
美国
使用方式:
暂无
卫星简介
Starlink 计划是 SpaceX 推出的全球卫星互联网项目,通过发射低轨道卫星,为全球尤其是偏远地区提供高速、低延迟的互联网服务。自 2019 年起,Starlink 已部署数千颗卫星,旨在缩小全球数字鸿沟,推动互联网普及。该项目还为军事、航空等行业提供通信支持,带来广泛经济效益。
2D轨道图
3D轨道图
轨道高度分析图
轨道倾角分析图
轨道综合分析图
查看轨道综合分析图
交会数据列表
事件ID 空间交会对象 最接近时刻(TCA) 交会距离 交会风险概率(CRP) 交会风险指数(CRI) 操作
CDM_260829-121906-582806-593021
2026-08-29T
12:19:27+0000
0.635 km
远距离
7.362676E-5 中风险 0.72
CDM_260905-052006-444506-593021
2026-09-05T
05:20:47+0000
1.308 km
极远距离
6.638954E-6 低风险 0.51
CDM_260903-082006-489106-593022
OBJECT R (64891)
2026-09-03T
08:20:40+0000
2.114 km
极远距离
2.469783E-6 低风险 0.43
CDM_260903-073306-489106-593022
OBJECT R (64891)
2026-09-03T
07:33:45+0000
2.865 km
极远距离
1.405135E-6 低风险 0.38
CDM_260904-144306-593006-606121
2026-09-04T
14:43:25+0000
2.615 km
极远距离
1.137614E-6 低风险 0.36
CDM_260904-205305-082306-593021
2026-09-04T
20:53:20+0000
2.522 km
极远距离
6.537574E-7 极低风险 0.31
CDM_260829-030306-593006-994621
2026-08-29T
03:03:11+0000
2.160 km
极远距离
4.263659E-7 极低风险 0.28